[[{"header":{"parameterUnit":"m.s-1","parameterCategory":1,"la1":30.2991,"la2":30.254,"lo1":-89.0895,"lo2":-89.0444,"dy":0.0017,"dx":0.0017,"nx":28,"ny":28,"refTime":"2023-11-08T09:00:00:Z","depth":0,"parameterNumber":2,"parameterNumberName":"U-component_of_WINDS"},"data":[0,0,0,0,0,0,0,0,0,0,0,0,0,0,0,0,0,0,0,0,0,0,0,0,0,0,0,0,0,0,0,0,0,0,0,0,0,0,0,0,0,0,0,0,0,0,0,0,0,0,0,0,0,0,0,0,0,0,-1.0113,-1.0113,0,-1.0111,-1.0111,-1.0111,-1.0067,-1.0066,-1.0065,-1.0064,-1.0063,-1.0064,-1.0065,0,0,0,0,0,0,0,0,0,0,0,0,0,-1.0079,-1.0079,-1.0113,-1.0113,-1.0113,-1.0111,-1.0111,-1.0111,-1.0068,-1.0066,-1.0065,-1.0064,-1.0063,-1.0064,-1.0065,0,0,0,0,0,0,0,0,0,0,0,0,0,-1.0087,-1.008,-1.0113,-1.0091,-1.0089,-1.0111,-1.0111,-1.0111,-1.0068,-1.0066,-1.0065,-1.0063,-1.0062,-1.0064,-1.0065,-1.0109,0,0,-1.007,-1.0071,0,0,0,0,0,0,0,0,-1.0086,-1.0088,-1.0094,-1.0093,-1.009,-1.0088,-1.0099,-1.011,-1.0068,-1.0076,-1.0064,-1.0062,-1.0073,-1.0073,-1.0077,-1.0108,-1.0108,-1.007,-1.0071,-1.0072,-1.0072,0,0,0,0,0,0,0,-1.0086,-1.0088,-1.0112,-1.0094,-1.0092,-1.0081,-1.0081,-1.0101,-1.0084,-1.0075,-1.0072,-1.0072,-1.0071,-1.0075,-1.0076,-1.0108,-1.007,-1.0071,-1.0072,-1.0073,-1.0174,-1.0176,0,0,0,0,0,0,-1.0088,-1.0088,-1.0112,-1.0112,-1.0084,-1.0083,-1.0082,-1.009,-1.0084,-1.0081,-1.0074,-1.007,-1.0073,-1.0075,-1.0076,-1.0125,-1.0072,-1.0073,-1.0074,-1.0172,-1.0174,-1.0176,0,0,0,0,0,0,-1.0088,-1.0091,-1.0112,-1.0099,-1.0101,-1.0086,-1.0095,-1.0091,-1.0095,-1.0082,-1.0079,-1.0081,-1.0072,-1.0074,-1.01,-1.0124,-1.0074,-1.0075,-1.017,-1.0173,-1.0175,-1.0223,0,0,0,0,0,0,-1.0087,-1.0091,-1.0107,-1.01,-1.0102,-1.0137,-1.0096,-1.0092,-1.0098,-1.0093,-1.0088,-1.0086,-1.0071,-1.0098,-1.0102,-1.0125,-1.0076,-1.0168,-1.0171,-1.0175,-1.0219,-1.0227,-1.0234,0,0,0,0,0,-1.0086,-1.0121,-1.0108,-1.0112,-1.0122,-1.0138,-1.0139,-1.0121,-1.01,-1.0116,-1.0108,-1.0086,-1.0121,-1.0101,-1.0105,-1.0129,-1.0166,-1.017,-1.0174,-1.0216,-1.0226,-1.0234,0,0,0,0,0,0,-1.0133,-1.012,-1.0105,-1.014,-1.014,-1.0131,-1.0151,-1.0132,-1.0139,-1.0135,-1.0112,-1.0112,-1.0141,-1.0138,-1.0116,-1.017,-1.014,-1.0145,-1.0171,-1.0179,-1.0187,-1.0186,-1.0078,0,0,0,0,0,-1.0147,-1.0161,-1.0149,-1.0181,-1.0182,-1.0166,-1.0173,-1.0159,-1.0159,-1.0159,-1.0152,-1.0153,-1.0164,-1.0172,-1.0182,-1.022,-1.0217,-1.0238,-1.0245,-1.0251,-1.0255,-1.0273,-1.0282,-1.0189,-1.0189,-1.0189,0,0,-1.0176,-1.0171,-1.0182,-1.019,-1.0189,-1.0203,-1.0167,-1.0184,-1.0195,-1.0162,-1.0185,-1.0181,-1.018,-1.0212,-1.0226,-1.021,-1.028,-1.0256,-1.0261,-1.0262,-1.0278,-1.0287,-1.0294,-1.0192,-1.0192,-1.0191,0,0,-1.0237,-1.0235,-1.026,-1.026,-1.0258,-1.0248,-1.0254,-1.0247,-1.0243,-1.0266,-1.0241,-1.0254,-1.0274,-1.0274,-1.0276,-1.0337,-1.0317,-1.0341,-1.0378,-1.0396,-1.0403,-1.0409,-1.0429,-1.0436,-1.0345,-1.0345,-1.0346,0,-1.0274,-1.0295,-1.0275,-1.0294,-1.0298,-1.0268,-1.0293,-1.0293,-1.0296,-1.0299,-1.0282,-1.0305,-1.0303,-1.0333,-1.0348,-1.0352,-1.0357,-1.034,-1.0403,-1.0409,-1.0415,-1.0433,-1.0441,-1.0348,-1.0348,-1.0348,-1.0347,0,-1.0339,-1.0354,-1.0374,-1.0376,-1.0382,-1.0404,-1.0388,-1.0397,-1.0383,-1.0374,-1.0398,-1.0394,-1.0402,-1.0408,-1.0395,-1.0437,-1.0427,-1.0407,-1.0376,-1.0427,-1.0444,-1.0451,-1.0352,-1.0351,-1.035,-1.035,0,0,-1.0428,-1.0418,-1.0426,-1.0425,-1.0422,-1.0433,-1.0453,-1.046,-1.0467,-1.047,-1.0486,-1.0503,-1.0485,-1.0488,-1.0474,-1.049,-1.0536,-1.0468,-1.0468,-1.0479,-1.058,-1.0593,-1.0602,-1.0524,-1.0525,-1.0526,-1.0579,0,-1.0485,-1.0518,-1.0501,-1.0536,-1.0549,-1.0521,-1.0538,-1.0538,-1.053,-1.054,-1.0532,-1.0544,-1.052,-1.0521,-1.0536,-1.0527,-1.0556,-1.0524,-1.0536,-1.0537,-1.0535,-1.0611,-1.0625,-1.0675,-1.0586,-1.0587,-1.0588,0,-1.0555,-1.0559,-1.0596,-1.0588,-1.0593,-1.0609,-1.0613,-1.0623,-1.0622,-1.0616,-1.0619,-1.0601,-1.062,-1.0591,-1.0617,-1.0595,-1.06,-1.0597,-1.0598,-1.0597,-1.0564,-1.0609,-1.0691,-1.0698,-1.0598,-1.0598,-1.0597,0,-1.0613,-1.0629,-1.0652,-1.0653,-1.0646,-1.0657,-1.0654,-1.0652,-1.0656,-1.0661,-1.0663,-1.0671,-1.0674,-1.068,-1.0664,-1.0645,-1.0691,-1.0661,-1.0685,-1.0685,-1.0694,-1.0693,-1.0775,-1.0701,-1.0701,-1.0701,-1.0701,0,-1.0677,-1.07,-1.0678,-1.0692,-1.0716,-1.0697,-1.0722,-1.0716,-1.0714,-1.0726,-1.0704,-1.0716,-1.0696,-1.0706,-1.0694,-1.0716,-1.0718,-1.0713,-1.0709,-1.0713,-1.0714,-1.0714,-1.071,-1.0703,-1.0702,-1.0702,-1.0702,0,-1.0745,-1.0732,-1.0755,-1.0746,-1.0744,-1.0762,-1.0754,-1.0767,-1.0758,-1.0774,-1.0776,-1.0762,-1.0773,-1.0759,-1.0769,-1.0761,-1.0789,-1.0782,-1.0789,-1.0786,-1.081,-1.0807,-1.0894,-1.0903,-1.0825,-1.0826,-1.0827,0,-1.0786,-1.0802,-1.0795,-1.0801,-1.08,-1.081,-1.0815,-1.0797,-1.0803,-1.0802,-1.0815,-1.0823,-1.0829,-1.0847,-1.0838,-1.0845,-1.0836,-1.0866,-1.0836,-1.084,-1.0833,-1.0832,-1.0832,-1.0871,-1.0872,-1.0872,-1.0873,0,-1.0858,-1.0851,-1.0858,-1.0863,-1.0868,-1.0872,-1.0873,-1.088,-1.0861,-1.0868,-1.0879,-1.0883,-1.0892,-1.0901,-1.0905,-1.0903,-1.0884,-1.0883,-1.0888,-1.0892,-1.0894,-1.0891,-1.0803,-1.088,-1.0879,-1.0879,-1.0879,-1.0878,-1.0912,-1.0925,-1.0921,-1.093,-1.0929,-1.0931,-1.0941,-1.0934,-1.0942,-1.0947,-1.0936,-1.0949,-1.0947,-1.0951,-1.095,-1.096,-1.0947,-1.0955,-1.0957,-1.0959,-1.0961,-1.0895,-1.0961,-1.0961,-1.0961,-1.096,-1.096,0,-1.0981,-1.0978,-1.0986,-1.0988,-1.0995,-1.0977,-1.0978,-1.0984,-1.0996,-1.0995,-1.1001,-1.1012,-1.102,-1.1012,-1.1018,-1.1027,-1.1019,-1.1029,-1.1027,-1.1026,-1.0974,-1.0967,-1.1036,-1.1036,-1.1036,-1.1036,-1.1036,-1.1036,-1.1018,-1.1038,-1.103,-1.1049,-1.1045,-1.1056,-1.1058,-1.1059,-1.1058,-1.1072,-1.1078,-1.1073,-1.1069,-1.1074,-1.1081,-1.1078,-1.1081,-1.1093,-1.1088,-1.1038,-1.103,-1.1023,-1.1017,-1.1095,-1.1095,-1.1139,-1.114,-1.114]},{"header":{"parameterUnit":"m.s-1","parameterCategory":1,"la1":30.2991,"la2":30.254,"lo1":-89.0895,"lo2":-89.0444,"dy":0.0017,"dx":0.0017,"nx":28,"ny":28,"refTime":"2023-11-08T09:00:00:Z","depth":0,"parameterNumber":3,"parameterNumberName":"V-component_of_WINDS"},"data":[0,0,0,0,0,0,0,0,0,0,0,0,0,0,0,0,0,0,0,0,0,0,0,0,0,0,0,0,0,0,0,0,0,0,0,0,0,0,0,0,0,0,0,0,0,0,0,0,0,0,0,0,0,0,0,0,0,0,3.0676,3.0675,0,3.0623,3.0622,3.0621,3.0664,3.0666,3.0668,3.067,3.061,3.0606,3.0603,0,0,0,0,0,0,0,0,0,0,0,0,0,3.0811,3.0808,3.0676,3.0675,3.0674,3.0623,3.0622,3.0621,3.0664,3.0666,3.0668,3.067,3.0611,3.0607,3.0603,0,0,0,0,0,0,0,0,0,0,0,0,0,3.0754,3.0807,3.0676,3.069,3.069,3.0623,3.0622,3.0621,3.0663,3.0666,3.0669,3.0671,3.0612,3.0607,3.0602,3.0517,0,0,3.0587,3.0585,0,0,0,0,0,0,0,0,3.0757,3.0749,3.0688,3.0688,3.0689,3.0653,3.0648,3.0586,3.0663,3.0673,3.067,3.0673,3.0621,3.0616,3.06,3.0514,3.0511,3.0587,3.0584,3.0581,3.058,0,0,0,0,0,0,0,3.0761,3.0752,3.0655,3.0687,3.0688,3.0697,3.0692,3.0636,3.0632,3.0673,3.0676,3.0669,3.0622,3.0604,3.0599,3.051,3.0587,3.0582,3.0579,3.0577,3.0356,3.0353,0,0,0,0,0,0,3.0764,3.0755,3.0656,3.0653,3.0731,3.0693,3.0687,3.0662,3.0633,3.0632,3.0667,3.0671,3.0611,3.0604,3.0597,3.0497,3.0582,3.0577,3.0574,3.0358,3.0355,3.0352,0,0,0,0,0,0,3.0767,3.0755,3.0658,3.0705,3.0693,3.0687,3.0659,3.0659,3.0642,3.0629,3.0628,3.065,3.0613,3.0604,3.0538,3.0496,3.0575,3.057,3.0362,3.0357,3.0353,3.0296,0,0,0,0,0,0,3.0771,3.0756,3.0724,3.0704,3.069,3.0601,3.0656,3.0656,3.0634,3.0639,3.0612,3.0611,3.0615,3.0545,3.0533,3.049,3.0566,3.0366,3.036,3.0355,3.0302,3.029,3.028,0,0,0,0,0,3.0775,3.0708,3.0722,3.071,3.0651,3.0598,3.0591,3.0598,3.063,3.0598,3.059,3.0611,3.0502,3.0538,3.0524,3.048,3.0368,3.0361,3.0355,3.0306,3.0292,3.0281,0,0,0,0,0,0,3.072,3.0705,3.0721,3.0645,3.0623,3.0606,3.0565,3.0583,3.055,3.0556,3.0565,3.0559,3.049,3.0478,3.0518,3.0397,3.044,3.0431,3.0408,3.0394,3.0384,3.0388,3.0562,0,0,0,0,0,3.0699,3.066,3.0648,3.0582,3.0571,3.057,3.0547,3.0556,3.0532,3.0522,3.051,3.0485,3.0446,3.0419,3.0382,3.03,3.0296,3.0263,3.0253,3.0244,3.0236,3.0195,3.0181,3.033,3.033,3.033,0,0,3.0655,3.0642,3.0616,3.0571,3.0555,3.0513,3.0561,3.0514,3.0483,3.0514,3.0453,3.0443,3.0416,3.0343,3.031,3.0331,3.0194,3.0236,3.0229,3.0225,3.0186,3.0172,3.016,3.0326,3.0326,3.0327,0,0,3.0554,3.054,3.0485,3.0469,3.0446,3.0446,3.0433,3.0414,3.0409,3.0348,3.0372,3.0334,3.0265,3.0247,3.0228,3.0124,3.0143,3.0111,3.0056,3.0016,3.0004,2.9993,2.9958,2.9945,3.0103,3.0103,3.0102,0,3.0502,3.0441,3.0454,3.0407,3.0387,3.0416,3.0361,3.0344,3.0308,3.0294,3.0318,3.0235,3.0219,3.0143,3.0118,3.0101,3.0087,3.0114,3.0005,2.9995,2.9985,2.9952,2.9938,3.0099,3.0099,3.01,3.01,0,3.038,3.0337,3.0296,3.0265,3.024,3.0188,3.0193,3.0166,3.0177,3.0175,3.0113,3.0095,3.0057,3.0039,3.0048,2.9965,2.9979,3.0004,3.0047,2.9967,2.9936,2.9923,3.0094,3.0095,3.0096,3.0097,0,0,3.024,3.022,3.0204,3.0192,3.017,3.0137,3.0087,3.0052,3.003,3.0005,2.9964,2.9907,2.9931,2.991,2.9917,2.9882,2.9804,2.9911,2.9911,2.9893,2.9714,2.9697,2.9681,2.9816,2.9814,2.9812,2.9717,0,3.014,3.0057,3.0068,2.9987,2.995,2.9979,2.9936,2.9918,2.9915,2.9882,2.9878,2.9839,2.9872,2.986,2.9826,2.982,2.9768,2.9827,2.9779,2.9777,2.9786,2.9665,2.9645,2.9557,2.9705,2.9702,2.9701,0,3.0011,2.9986,2.9903,2.989,2.9874,2.9836,2.9806,2.9774,2.9754,2.9755,2.9733,2.9748,2.9699,2.9743,2.9676,2.9716,2.9697,2.9692,2.9688,2.9685,2.9735,2.9659,2.9528,2.9515,2.9682,2.9683,2.9684,0,2.9921,2.9865,2.9809,2.9797,2.978,2.9753,2.9744,2.9728,2.9707,2.968,2.9667,2.9634,2.9616,2.959,2.9596,2.9627,2.9528,2.9572,2.9527,2.9527,2.9505,2.9507,2.9371,2.9491,2.9491,2.9491,2.9491,0,2.9808,2.9757,2.9769,2.9734,2.9678,2.9692,2.9635,2.9629,2.9615,2.958,2.9602,2.9568,2.9577,2.9544,2.9547,2.9493,2.9484,2.9483,2.9485,2.9482,2.9482,2.947,2.9477,2.9488,2.9488,2.9489,2.949,0,2.9697,2.9703,2.9645,2.9635,2.9632,2.9591,2.9582,2.9549,2.955,2.9505,2.9496,2.9495,2.9458,2.9461,2.9417,2.942,2.9353,2.9361,2.936,2.9363,2.9319,2.9324,2.9171,2.9152,2.9283,2.9282,2.9281,0,2.9626,2.9588,2.9575,2.9555,2.9546,2.9511,2.9492,2.9504,2.9482,2.9459,2.9429,2.9394,2.9367,2.9306,2.9301,2.9268,2.9277,2.9226,2.9272,2.9271,2.9279,2.9282,2.9279,2.9217,2.9215,2.9214,2.9213,0,2.9499,2.9505,2.9477,2.945,2.9427,2.9406,2.9387,2.9368,2.9379,2.9353,2.9317,2.9296,2.9254,2.9219,2.9189,2.9179,2.9198,2.9199,2.9187,2.9184,2.9187,2.9187,2.9337,2.9202,2.9203,2.9204,2.9205,2.9205,2.9407,2.9376,2.9364,2.9332,2.932,2.9303,2.9273,2.9272,2.9242,2.9211,2.9219,2.9178,2.9162,2.9124,2.9112,2.9079,2.9098,2.908,2.9076,2.9072,2.9068,2.9191,2.9074,2.9074,2.9074,2.9074,2.9075,0,2.9284,2.9278,2.9249,2.9224,2.92,2.9222,2.9203,2.9181,2.9146,2.913,2.9104,2.9063,2.903,2.9025,2.8994,2.8969,2.8977,2.8961,2.8963,2.8961,2.9052,2.9067,2.8955,2.8955,2.8955,2.8955,2.8955,2.8955,2.9216,2.9166,2.9171,2.9115,2.9109,2.9072,2.906,2.9044,2.9032,2.8986,2.8961,2.8958,2.8946,2.8915,2.8887,2.8886,2.8874,2.8855,2.8857,2.8942,2.8954,2.8966,2.8979,2.8852,2.8851,2.8769,2.8769,2.8768]}]]